Content
SEND FEEDBACK

Daily
Averages
Monthly
Summary
Canada

SAINT-LEON-DE-STANDON, QUEBEC


Home > North America > Canada > Quebec
Elevation: 1171 feet     Latitude: 46 22N     Longitude: 070 42W

WEATHER
 
SELECT A DAY
Number of Records: 140,865;   Date Range: 1/1/95 - 9/13/14
 
SHARE

PRINT THIS DATA

[ ← Previous Day ]
WEATHER ALMANAC - FEBRUARY 13, 2013
[ Next Day → ]
[ °C ]   °F
Weather ElementAverageHighLow
Temperature26.1 °F31 °F (1:00 pm)22.6 °F (11:00 pm)
Dewpoint19.5 °F22 °F (1:00 am)17.6 °F (9:00 am)
Humidity75.2 %87 % (10:00 pm)51 % (1:00 pm)
Barometer29.74 in29.77 in (8:00 am)29.70 in (1:00 am)
Wind Speed3.3 mph5.8 mph (1:00 am)
Weather ElementAverage
Wind DirectionWSW (245.9 °)

Weather ElementTotal
Precipitation---
Heating Degree Days38.2 (Base 65)
Averaged from 27 records on February 13, 2013
WEATHER CONDITIONS BREAKOUT
WIND DIRECTION BREAKOUT
WEATHER BY HOUR - FEBRUARY 13, 2013
[ °C ]   °F
Local TimeTemperatureDewpointHumidityBarometerVisibilityWind DirectionWind SpeedGust SpeedPrecipitationEventsConditions
1:00 AM27.0 °F22.0 °F72 %29.70 inWest (280°)5.8 mph
1:00 AM27.3 °F21.6 °F79 %29.70 inWest (280°)5.8 mph
2:00 AM26.2 °F21.0 °F81 %29.70 inWNW (300°)4.6 mph
3:00 AM25.7 °F20.8 °F82 %29.71 inWest (280°)3.5 mph
4:00 AM25.0 °F19.6 °F80 %29.71 inWNW (290°)4.6 mph
5:00 AM24.6 °F19.0 °F79 %29.73 inWest (280°)2.3 mph
6:00 AM24.1 °F18.5 °F79 %29.73 inWSW (250°)2.3 mph
7:00 AM24.0 °F18.0 °F71 %29.75 inSE (140°)1.2 mph
7:00 AM23.7 °F18.5 °F80 %29.75 inSE (140°)1.2 mph
8:00 AM23.9 °F18.3 °F79 %29.77 inWest (270°)3.5 mph
9:00 AM24.6 °F17.6 °F75 %29.77 inWest (260°)3.5 mph
10:00 AM26.1 °F18.3 °F73 %29.77 inWest (260°)4.6 mph
11:00 AM27.3 °F18.3 °F69 %29.77 inWest (260°)4.6 mph
12:00 PM28.8 °F19.4 °F68 %29.75 inWSW (250°)4.6 mph
1:00 PM31.0 °F20.0 °F51 %29.73 inWSW (250°)5.8 mph
1:00 PM30.6 °F19.9 °F65 %29.73 inWSW (250°)5.8 mph
2:00 PM29.7 °F20.1 °F68 %29.73 inWSW (250°)4.6 mph
3:00 PM29.1 °F19.8 °F68 %29.73 inWest (270°)3.5 mph
4:00 PM29.5 °F20.5 °F69 %29.73 inWNW (290°)3.5 mph
5:00 PM28.2 °F20.8 °F74 %29.74 inNNW (330°)1.2 mph
6:00 PM26.1 °F19.9 °F78 %29.74 inWNW (290°)3.5 mph
7:00 PM24.0 °F19.0 °F73 %29.74 inWNW (300°)2.3 mph
7:00 PM24.4 °F18.9 °F79 %29.74 inWNW (300°)2.3 mph
8:00 PM23.9 °F18.5 °F80 %29.75 inCalm
9:00 PM23.9 °F19.9 °F85 %29.76 inSSW (200°)1.2 mph
10:00 PM22.8 °F19.6 °F87 %29.75 inSSE (160°)2.3 mph
11:00 PM22.6 °F19.4 °F87 %29.75 inSSW (210°)2.3 mph
Hourly data recorded from CWHV, located miles away from Saint-Leon-de-Standon, Quebec







STORIES FROM OUR PARTNERS